Weather History for KHKY - January, 2013

Change the Weather History Date:

Sunday, January 27, 2013

  Actual Average Record
Temperature  
Mean Temperature 32 °F -  
Max Temperature 39 °F 48 °F 72 °F (1954)
Min Temperature 24 °F 26 °F 9 °F (1982)
Degree Days  
Heating Degree Days 34    
Moisture  
Dew Point 25 °F    
Average Humidity 71    
Maximum Humidity 96    
Minimum Humidity 53    
Precipitation  
Precipitation 0.01 in - - ()
Sea Level Pressure  
Sea Level Pressure 30.46 in    
Wind  
Wind Speed 2 mph (NNE)    
Max Wind Speed 6 mph    
Max Gust Speed -    
Visibility 8 miles    
Events Rain    
Averages and records for this station are not official NWS values.
T = Trace of Precipitation, MM = Missing Value Source: NWS Daily Summary

Daily Weather History Graph

Daily Weather History Graph

Search for Another Location

Airport or City:

Trip Planner

Search our weather history database for the weather conditions in past years. The results will help you decide how hot, cold, wet, or windy it might be!

Date:

Astronomy

Jan. 27, 2013 Rise Set
Actual Time 7:29 AM EST 5:48 PM EST
Civil Twilight 7:01 AM EST 6:15 PM EST
Nautical Twilight 6:31 AM EST 6:45 PM EST
Astronomical Twilight 6:00 AM EST 7:16 PM EST
Moon 6:37 PM EST (1/27) 7:24 AM EST (1/27)
Length of Visible Light 11h 13m
Length of Day
10h 18m
Full, 100% of the Moon is Illuminated
Jan 27
Full
Feb 3
Last Quarter
Feb 10
New
Feb 17
First Quarter
Feb 25
Full

Hourly Weather History & Observations

Time (EST) Temp. Windchill Dew Point Humidity Pressure Visibility Wind Dir Wind Speed Gust Speed Precip Events Conditions
12:53 AM 28.0 °F - 27.0 °F 96% 30.36 in 3.0 mi Calm Calm - N/A   Clear
1:53 AM 30.0 °F 25.2 °F 26.1 °F 85% 30.38 in 8.0 mi East 4.6 mph - N/A   Clear
2:53 AM 26.1 °F 21.9 °F 23.0 °F 88% 30.40 in 5.0 mi NE 3.5 mph - N/A   Clear
3:53 AM 27.0 °F 21.6 °F 25.0 °F 92% 30.40 in 5.0 mi ENE 4.6 mph - N/A   Clear
4:53 AM 26.1 °F - 24.1 °F 92% 30.40 in 4.0 mi Calm Calm - N/A   Clear
5:53 AM 25.0 °F - 21.9 °F 88% 30.43 in 6.0 mi Calm Calm - N/A   Clear
6:53 AM 25.0 °F - 21.9 °F 88% 30.46 in 6.0 mi Calm Calm - N/A   Clear
7:53 AM 24.1 °F - 19.9 °F 84% 30.49 in 4.0 mi Calm Calm - N/A   Clear
8:53 AM 28.0 °F - 25.0 °F 88% 30.51 in 5.0 mi Calm Calm - N/A   Partly Cloudy
9:53 AM 33.1 °F 30.0 °F 26.1 °F 75% 30.53 in 9.0 mi NNE 3.5 mph - N/A   Clear
10:53 AM 35.1 °F 30.1 °F 23.0 °F 61% 30.54 in 10.0 mi NE 5.8 mph - N/A   Clear
11:45 AM 35.6 °F 31.7 °F 23.0 °F 60% 30.53 in 10.0 mi NE 4.6 mph - N/A   Mostly Cloudy
11:53 AM 35.1 °F 31.0 °F 23.0 °F 61% 30.53 in 10.0 mi NE 4.6 mph - N/A   Mostly Cloudy
12:28 PM 35.6 °F 32.8 °F 24.8 °F 65% 30.51 in 10.0 mi Variable 3.5 mph - N/A   Scattered Clouds
12:53 PM 37.0 °F 33.3 °F 23.0 °F 57% 30.51 in 10.0 mi North 4.6 mph - N/A   Scattered Clouds
1:53 PM 39.0 °F 35.7 °F 25.0 °F 57% 30.48 in 10.0 mi NNW 4.6 mph - N/A   Clear
2:53 PM 39.9 °F 36.7 °F 24.1 °F 53% 30.46 in 10.0 mi NNE 4.6 mph - N/A   Clear
3:53 PM 39.0 °F 35.7 °F 25.0 °F 57% 30.45 in 10.0 mi North 4.6 mph - N/A   Clear
4:53 PM 39.0 °F 36.8 °F 25.0 °F 57% 30.46 in 10.0 mi NNE 3.5 mph - N/A   Scattered Clouds
5:53 PM 39.0 °F 36.8 °F 25.0 °F 57% 30.48 in 10.0 mi NNE 3.5 mph - N/A   Scattered Clouds
6:53 PM 37.9 °F - 26.1 °F 62% 30.47 in 10.0 mi Calm Calm - N/A   Overcast
7:53 PM 37.0 °F - 26.1 °F 65% 30.48 in 10.0 mi Calm Calm - N/A   Overcast
8:53 PM 37.9 °F - 26.1 °F 62% 30.47 in 10.0 mi Calm Calm - N/A   Overcast
9:53 PM 37.9 °F - 26.1 °F 62% 30.45 in 10.0 mi Calm Calm - N/A   Overcast
10:53 PM 37.9 °F - 26.1 °F 62% 30.45 in 9.0 mi Calm Calm - N/A   Clear
11:53 PM 35.1 °F - 30.9 °F 85% 30.44 in 7.0 mi Calm Calm - 0.01 in Rain Light Rain